When you browse on this site, cookies collect data to enhance your experience and personalize the content and advertising you see.
Visit our Privacy Policy to learn more. By continuing to use the site, you agree to this use of cookies and data.
  • In Spain
  • List of Countries
  • For 7 days
  • Water Temperature
  • Satellite Maps
  • Weather Map
  • Weather Widgets
  • user-avatar
    Login

    Hourly Weather Sliven

    Today, 22 January, Tuesday

    Time Temperature Precipitation Wind Pressure Humidity
    00:00 -1°C° 0 mm 2 mps 735 mmHg 86%
    01:00 -1°C° 0 mm 2 mps 735 mmHg 86%
    02:00 -2°C° 0 mm 2 mps 735 mmHg 85%
    03:00 -2°C° 0 mm 2 mps 735 mmHg 87%
    04:00 -2°C° 0 mm 2 mps 735 mmHg 88%
    05:00 -2°C° 0 mm 2 mps 734 mmHg 90%
    06:00 -2°C° 0 mm 2 mps 734 mmHg 90%
    07:00 -1°C° 0 mm 2 mps 734 mmHg 91%
    08:00 -1°C° 0 mm 3 mps 734 mmHg 91%
    09:00 -1°C° 0.1 mm 2 mps 734 mmHg 89%
    10:00 +1°C° 0.1 mm 2 mps 733 mmHg 87%
    11:00 +2°C° 0.1 mm 2 mps 733 mmHg 85%
    12:00 +2°C° 0.1 mm 2 mps 733 mmHg 84%
    13:00 +3°C° 0.1 mm 2 mps 732 mmHg 84%
    14:00 +2°C° 0.1 mm 3 mps 731 mmHg 83%
    15:00 +3°C° 0 mm 2 mps 731 mmHg 86%
    16:00 +3°C° 0 mm 2 mps 730 mmHg 88%
    17:00 +3°C° 0 mm 2 mps 730 mmHg 91%
    18:00 +3°C° 0.1 mm 2 mps 729 mmHg 92%
    19:00 +2°C° 0.1 mm 3 mps 729 mmHg 94%
    20:00 +2°C° 0.1 mm 3 mps 728 mmHg 95%
    21:00 +2°C° 0 mm 3 mps 728 mmHg 95%
    22:00 +2°C° 0 mm 3 mps 727 mmHg 95%
    23:00 +2°C° 0 mm 3 mps 727 mmHg 96%

    Tomorrow, 23 January, Wednesday

    Time Temperature Precipitation Wind Pressure Humidity
    00:00 +2°C° 0.1 mm 3 mps 726 mmHg 96%
    01:00 +2°C° 0.1 mm 3 mps 726 mmHg 96%
    02:00 +3°C° 0.1 mm 3 mps 725 mmHg 96%
    03:00 +4°C° 0.2 mm 2 mps 724 mmHg 96%
    04:00 +4°C° 0.2 mm 2 mps 724 mmHg 97%
    05:00 +4°C° 0.2 mm 2 mps 723 mmHg 97%
    06:00 +5°C° 0 mm 2 mps 723 mmHg 97%
    07:00 +5°C° 0 mm 2 mps 723 mmHg 97%
    08:00 +5°C° 0 mm 2 mps 723 mmHg 97%
    09:00 +6°C° 0 mm 2 mps 723 mmHg 94%
    10:00 +7°C° 0 mm 2 mps 723 mmHg 91%
    11:00 +8°C° 0 mm 3 mps 723 mmHg 89%
    12:00 +9°C° 0 mm 3 mps 723 mmHg 84%
    13:00 +9°C° 0 mm 3 mps 723 mmHg 80%
    14:00 +10°C° 0 mm 3 mps 722 mmHg 76%
    15:00 +9°C° 0 mm 2 mps 722 mmHg 79%
    16:00 +8°C° 0 mm 2 mps 722 mmHg 82%
    17:00 +8°C° 0 mm 2 mps 722 mmHg 85%
    18:00 +7°C° 0 mm 2 mps 722 mmHg 88%
    19:00 +7°C° 0 mm 3 mps 722 mmHg 92%
    20:00 +6°C° 0 mm 4 mps 722 mmHg 95%
    21:00 +6°C° 0 mm 4 mps 722 mmHg 95%
    22:00 +6°C° 0 mm 4 mps 722 mmHg 95%
    23:00 +6°C° 0 mm 4 mps 722 mmHg 95%

    Day after tomorrow, 24 January, Thursday

    Time Temperature Precipitation Wind Pressure Humidity
    00:00 +6°C° 0.3 mm 4 mps 721 mmHg 95%
    01:00 +6°C° 0.3 mm 4 mps 721 mmHg 96%
    02:00 +6°C° 0.3 mm 4 mps 721 mmHg 96%
    03:00 +6°C° 0.5 mm 4 mps 720 mmHg 96%
    04:00 +6°C° 0.5 mm 4 mps 720 mmHg 96%
    05:00 +7°C° 0.5 mm 3 mps 719 mmHg 97%
    06:00 +6°C° 0.8 mm 4 mps 719 mmHg 95%
    07:00 +6°C° 0.8 mm 4 mps 719 mmHg 94%
    08:00 +6°C° 0.8 mm 4 mps 719 mmHg 93%
    09:00 +5°C° 1.7 mm 4 mps 718 mmHg 94%
    10:00 +5°C° 1.7 mm 3 mps 718 mmHg 95%
    11:00 +5°C° 1.7 mm 3 mps 718 mmHg 96%
    12:00 +5°C° 1.6 mm 3 mps 718 mmHg 94%
    13:00 +7°C° 1.6 mm 3 mps 718 mmHg 92%
    14:00 +7°C° 1.6 mm 3 mps 717 mmHg 90%
    15:00 +7°C° 0.1 mm 3 mps 717 mmHg 91%
    16:00 +7°C° 0.1 mm 3 mps 717 mmHg 92%
    17:00 +7°C° 0.1 mm 3 mps 717 mmHg 93%
    18:00 +7°C° 0.1 mm 3 mps 717 mmHg 94%
    19:00 +5°C° 0.1 mm 3 mps 717 mmHg 94%
    20:00 +5°C° 0.1 mm 3 mps 717 mmHg 95%
    21:00 +5°C° 0.2 mm 3 mps 717 mmHg 95%
    22:00 +5°C° 0.2 mm 3 mps 717 mmHg 95%
    23:00 +5°C° 0.2 mm 3 mps 718 mmHg 95%

    25 January, Friday

    Time Temperature Precipitation Wind Pressure Humidity
    00:00 +6°C° 0.7 mm 2 mps 718 mmHg 95%
    01:00 +6°C° 0.7 mm 2 mps 718 mmHg 96%
    02:00 +7°C° 0.7 mm 1 mps 718 mmHg 97%
    03:00 +7°C° 0.1 mm 1 mps 718 mmHg 97%
    04:00 +6°C° 0.1 mm 2 mps 718 mmHg 97%
    05:00 +6°C° 0.1 mm 2 mps 718 mmHg 96%
    06:00 +6°C° 0 mm 2 mps 718 mmHg 97%
    07:00 +6°C° 0 mm 2 mps 719 mmHg 97%
    08:00 +6°C° 0 mm 2 mps 719 mmHg 97%
    09:00 +7°C° 0.9 mm 3 mps 719 mmHg 95%
    10:00 +7°C° 0.9 mm 3 mps 719 mmHg 94%
    11:00 +7°C° 0.9 mm 4 mps 719 mmHg 93%
    12:00 +7°C° 0.2 mm 5 mps 719 mmHg 89%
    13:00 +8°C° 0.2 mm 5 mps 718 mmHg 85%
    14:00 +8°C° 0.2 mm 6 mps 718 mmHg 82%
    15:00 +8°C° 0.3 mm 6 mps 717 mmHg 83%
    16:00 +8°C° 0.3 mm 6 mps 717 mmHg 85%
    17:00 +7°C° 0.3 mm 6 mps 717 mmHg 87%
    18:00 +7°C° 1 mm 6 mps 717 mmHg 89%
    19:00 +7°C° 1 mm 6 mps 717 mmHg 91%
    20:00 +5°C° 1 mm 6 mps 717 mmHg 93%
    21:00 +6°C° 0.8 mm 5 mps 717 mmHg 94%
    22:00 +6°C° 0.8 mm 4 mps 717 mmHg 95%
    23:00 +7°C° 0.8 mm 3 mps 717 mmHg 95%

    26 January, Saturday

    Time Temperature Precipitation Wind Pressure Humidity
    00:00 +6°C° 0 mm 2 mps 717 mmHg 95%
    01:00 +6°C° 0 mm 2 mps 716 mmHg 96%
    02:00 +7°C° 0 mm 1 mps 716 mmHg 96%
    03:00 +6°C° 0 mm 1 mps 716 mmHg 95%
    04:00 +6°C° 0 mm 1 mps 716 mmHg 94%
    05:00 +6°C° 0 mm 1 mps 716 mmHg 93%
    06:00 +6°C° 0.3 mm 1 mps 717 mmHg 93%
    07:00 +5°C° 0.3 mm 2 mps 717 mmHg 93%
    08:00 +5°C° 0.3 mm 2 mps 717 mmHg 92%
    09:00 +6°C° 0.4 mm 2 mps 718 mmHg 90%
    10:00 +7°C° 0.4 mm 2 mps 718 mmHg 88%
    11:00 +7°C° 0.4 mm 2 mps 718 mmHg 86%
    12:00 +8°C° 0.1 mm 2 mps 718 mmHg 83%
    13:00 +9°C° 0.1 mm 2 mps 718 mmHg 80%
    14:00 +9°C° 0.1 mm 2 mps 718 mmHg 77%
    15:00 +8°C° 0.6 mm 3 mps 718 mmHg 81%
    16:00 +7°C° 0.6 mm 3 mps 718 mmHg 85%
    17:00 +5°C° 0.6 mm 3 mps 718 mmHg 89%
    18:00 +5°C° 2.6 mm 3 mps 718 mmHg 90%
    19:00 +4°C° 2.6 mm 3 mps 718 mmHg 91%
    20:00 +4°C° 2.6 mm 3 mps 719 mmHg 93%
    21:00 +4°C° 0.6 mm 3 mps 719 mmHg 92%
    22:00 +4°C° 0.6 mm 3 mps 719 mmHg 92%
    23:00 +4°C° 0.6 mm 3 mps 719 mmHg 92%

    27 January, Sunday

    Time Temperature Precipitation Wind Pressure Humidity
    00:00 +3°C° 1.3 mm 3 mps 719 mmHg 92%
    01:00 +3°C° 1.3 mm 3 mps 720 mmHg 92%
    02:00 +3°C° 1.3 mm 3 mps 720 mmHg 92%
    03:00 +3°C° 1.1 mm 3 mps 720 mmHg 92%
    04:00 +4°C° 1.1 mm 2 mps 720 mmHg 91%
    05:00 +3°C° 1.1 mm 2 mps 720 mmHg 90%
    06:00 +3°C° 0.1 mm 2 mps 720 mmHg 90%
    07:00 +3°C° 0.1 mm 2 mps 720 mmHg 90%
    08:00 +3°C° 0.1 mm 2 mps 721 mmHg 89%
    09:00 +3°C° 0 mm 2 mps 721 mmHg 87%
    10:00 +5°C° 0 mm 1 mps 721 mmHg 85%
    11:00 +6°C° 0 mm 1 mps 722 mmHg 83%
    12:00 +6°C° 0 mm 1 mps 722 mmHg 83%
    13:00 +6°C° 0 mm 1 mps 722 mmHg 83%
    14:00 +7°C° 0 mm 1 mps 722 mmHg 82%
    15:00 +5°C° 0 mm 2 mps 722 mmHg 83%
    16:00 +5°C° 0 mm 2 mps 722 mmHg 85%
    17:00 +4°C° 0 mm 2 mps 723 mmHg 86%
    18:00 +4°C° 0.1 mm 2 mps 723 mmHg 86%
    19:00 +4°C° 0.1 mm 2 mps 724 mmHg 86%
    20:00 +3°C° 0.1 mm 2 mps 724 mmHg 86%
    21:00 +3°C° 0.1 mm 2 mps 725 mmHg 87%
    22:00 +3°C° 0.1 mm 2 mps 725 mmHg 87%
    23:00 +3°C° 0.1 mm 2 mps 726 mmHg 87%
    Show more